Location: ?
(35.4554°N, 139.3092°E)
Time: 22:50:45
(UTC+00:00)

ADEOS II - Pass Details

Date: 21 April 2021
Orbit: 798 x 801 km, 98.6° (Epoch: 10 May)

Event Time Altitude Azimuth Distance (km) Brightness Sun altitude
Rises 16:37:46 0° 16° (NNE) 3,311 6.2 -35.1°
Reaches altitude 10° 16:40:08 10° 19° (NNE) 2,377 5.3 -34.8°
Enters shadow 16:43:31 39° 35° (NE) 1,175 3.3 -34.4°
